Location: Altavilla Irpina
(41.0000°N, 14.7833°E)
Time: 16:50:45
(UTC+00:00)

CZ-2C R/B - Pass Details

Date: 19 May 2025
Orbit: 631 x 693 km, 98.1° (Epoch: 16 June)

Event Time Altitude Azimuth Distance (km) Brightness Sun altitude
Rises 21:38:13 0° 15° (NNE) 2,933 7.8 -26.3°
Reaches altitude 10° 21:40:26 10° 18° (NNE) 2,020 6.8 -26.5°
Enters shadow 21:43:46 49° 38° (NE) 816 4.2 -26.7°
